User: anonymous   Login
Location: Durham
(54.7770°N, 1.5720°W)
Time: 02:08:41
(UTC+00:00)
Language:

ISS - Orbit

View from above orbital plane
View from above orbital plane
View from above satellite
View from above satellite

Ground track
Ground track

The orbit data is extracted from the following two-line orbital elements,

1 25544U 98067A   14355.89067725  .00021984  00000-0  35766-3 0  6061
2 25544 051.6476 248.7081 0007636 158.6407 297.1016 15.52568008920450
Epoch (UTC): 21 December 2014 21:22:34
Eccentricity: 0.0007636
inclination: 51.6476°
perigee height: 404 km
apogee height: 414 km
right ascension of ascending node: 248.7081°
argument of perigee: 158.6407°
revolutions per day: 15.52568008
mean anomaly at epoch: 297.1016°
orbit number at epoch: 92045

The dashed part of the orbit path shows where the satellite is in the earth's shadow,  

DLR